owner,sensor,date,latitude,longitude,vertical_datum,wind_speed,wind_to_direction,wind_speed_of_gust,qcFlag 
TCOON,ioos:station:TCOON:524:1,2017-10-01T00:00:00Z,29.8672,-93.9310,0.0,2.6,3.0,3.3,'11111222,11111222,11111222' 
TCOON,ioos:station:TCOON:524:1,2017-10-01T00:06:00Z,29.8672,-93.9310,0.0,3.1,3.0,3.7,'11111222,11111222,11111222' 
TCOON,ioos:station:TCOON:524:1,2017-10-01T00:12:00Z,29.8672,-93.9310,0.0,3.4,3.0,4.6,'11111222,11111222,11111222' 
TCOON,ioos:station:TCOON:524:1,2017-10-01T00:18:00Z,29.8672,-93.9310,0.0,3.4,3.0,4.6,'1111122,1111122,1111122' 
TCOON,ioos:station:TCOON:524:1,2017-10-01T00:24:00Z,29.8672,-93.9310,0.0,2.9,4.0,3.9,'11111222,11111222,11111222' 
TCOON,ioos:station:TCOON:524:1,2017-10-01T00:30:00Z,29.8672,-93.9310,0.0,3.7,4.0,4.5,'11111222,11111222,11111222' 
TCOON,ioos:station:TCOON:524:1,2017-10-01T00:36:00Z,29.8672,-93.9310,0.0,3.7,2.0,4.4,'11111222,11111222,11111222' 
TCOON,ioos:station:TCOON:524:1,2017-10-01T00:42:00Z,29.8672,-93.9310,0.0,3.6,8.0,4.3,'11111222,11111222,11111222' 
TCOON,ioos:station:TCOON:524:1,2017-10-01T00:48:00Z,29.8672,-93.9310,0.0,3.5,8.0,4.7,'11111222,11111222,11111222' 
TCOON,ioos:station:TCOON:524:1,2017-10-01T00:54:00Z,29.8672,-93.9310,0.0,3.5,2.0,4.1,'11111222,11111222,11111222' 
TCOON,ioos:station:TCOON:524:1,2017-10-01T01:00:00Z,29.8672,-93.9310,0.0,3.5,3.0,4.2,'11111222,11111222,11111222' 
TCOON,ioos:station:TCOON:524:1,2017-10-01T01:06:00Z,29.8672,-93.9310,0.0,3.1,6.0,4.1,'11111222,11111222,11111222' 
TCOON,ioos:station:TCOON:524:1,2017-10-01T01:12:00Z,29.8672,-93.9310,0.0,3.1,4.0,4.2,'11111222,11111222,11111222' 
TCOON,ioos:station:TCOON:524:1,2017-10-01T01:18:00Z,29.8672,-93.9310,0.0,3.1,4.0,4.2,'1111122,1111122,1111122' 
TCOON,ioos:station:TCOON:524:1,2017-10-01T01:24:00Z,29.8672,-93.9310,0.0,3.0,5.0,3.6,'11111222,11111222,11111222' 
TCOON,ioos:station:TCOON:524:1,2017-10-01T01:30:00Z,29.8672,-93.9310,0.0,3.0,7.0,3.7,'11111222,11111222,11111222' 
TCOON,ioos:station:TCOON:524:1,2017-10-01T01:36:00Z,29.8672,-93.9310,0.0,3.0,13.0,3.8,'11111222,11111222,11111222' 
TCOON,ioos:station:TCOON:524:1,2017-10-01T01:42:00Z,29.8672,-93.9310,0.0,3.2,5.0,4.0,'11111222,11111222,11111222' 
TCOON,ioos:station:TCOON:524:1,2017-10-01T01:48:00Z,29.8672,-93.9310,0.0,3.7,4.0,4.6,'11111222,11111222,11111222' 
TCOON,ioos:station:TCOON:524:1,2017-10-01T01:54:00Z,29.8672,-93.9310,0.0,3.7,6.0,4.7,'11111222,11111222,11111222' 
TCOON,ioos:station:TCOON:524:1,2017-10-01T02:00:00Z,29.8672,-93.9310,0.0,3.2,13.0,4.9,'11111222,11111222,11111222' 
TCOON,ioos:station:TCOON:524:1,2017-10-01T02:06:00Z,29.8672,-93.9310,0.0,3.5,16.0,4.4,'11111222,11111222,11111222' 
TCOON,ioos:station:TCOON:524:1,2017-10-01T02:12:00Z,29.8672,-93.9310,0.0,3.3,18.0,4.5,'11111222,11111222,11111222' 
TCOON,ioos:station:TCOON:524:1,2017-10-01T02:18:00Z,29.8672,-93.9310,0.0,3.3,18.0,4.5,'1111122,1111122,1111122' 
TCOON,ioos:station:TCOON:524:1,2017-10-01T02:24:00Z,29.8672,-93.9310,0.0,3.3,13.0,4.2,'11111222,11111222,11111222' 
TCOON,ioos:station:TCOON:524:1,2017-10-01T02:30:00Z,29.8672,-93.9310,0.0,3.0,12.0,4.1,'11111222,11111222,11111222' 
TCOON,ioos:station:TCOON:524:1,2017-10-01T02:36:00Z,29.8672,-93.9310,0.0,3.3,10.0,4.0,'11111222,11111222,11111222' 
TCOON,ioos:station:TCOON:524:1,2017-10-01T02:42:00Z,29.8672,-93.9310,0.0,3.2,16.0,3.9,'11111222,11111222,11111222' 
TCOON,ioos:station:TCOON:524:1,2017-10-01T02:48:00Z,29.8672,-93.9310,0.0,3.5,14.0,4.1,'11111222,11111222,11111222' 
TCOON,ioos:station:TCOON:524:1,2017-10-01T02:54:00Z,29.8672,-93.9310,0.0,3.0,7.0,4.4,'11111222,11111222,11111222' 
TCOON,ioos:station:TCOON:524:1,2017-10-01T03:00:00Z,29.8672,-93.9310,0.0,3.2,7.0,4.4,'11111222,11111222,11111222' 
TCOON,ioos:station:TCOON:524:1,2017-10-01T03:06:00Z,29.8672,-93.9310,0.0,3.2,3.0,4.0,'11111222,11111222,11111222' 
TCOON,ioos:station:TCOON:524:1,2017-10-01T03:12:00Z,29.8672,-93.9310,0.0,3.2,359.0,3.9,'11111222,11111222,11111222' 
TCOON,ioos:station:TCOON:524:1,2017-10-01T03:18:00Z,29.8672,-93.9310,0.0,3.2,359.0,3.9,'1111122,1111122,1111122' 
TCOON,ioos:station:TCOON:524:1,2017-10-01T03:24:00Z,29.8672,-93.9310,0.0,3.1,2.0,4.3,'11111222,11111222,11111222' 
TCOON,ioos:station:TCOON:524:1,2017-10-01T03:30:00Z,29.8672,-93.9310,0.0,3.3,7.0,3.7,'11111222,11111222,11111222' 
TCOON,ioos:station:TCOON:524:1,2017-10-01T03:36:00Z,29.8672,-93.9310,0.0,3.5,7.0,4.2,'11111222,11111222,11111222' 
TCOON,ioos:station:TCOON:524:1,2017-10-01T03:42:00Z,29.8672,-93.9310,0.0,3.5,18.0,5.2,'11111222,11111222,11111222' 
TCOON,ioos:station:TCOON:524:1,2017-10-01T03:48:00Z,29.8672,-93.9310,0.0,3.3,17.0,5.3,'11111222,11111222,11111222' 
TCOON,ioos:station:TCOON:524:1,2017-10-01T03:54:00Z,29.8672,-93.9310,0.0,3.2,24.0,4.6,'11111222,11111222,11111222' 
TCOON,ioos:station:TCOON:524:1,2017-10-01T04:00:00Z,29.8672,-93.9310,0.0,3.3,26.0,4.2,'11111222,11111222,11111222' 
TCOON,ioos:station:TCOON:524:1,2017-10-01T04:06:00Z,29.8672,-93.9310,0.0,2.1,34.0,3.5,'11111222,11111222,11111222' 
TCOON,ioos:station:TCOON:524:1,2017-10-01T04:12:00Z,29.8672,-93.9310,0.0,2.7,30.0,3.7,'11111222,11111222,11111222' 
TCOON,ioos:station:TCOON:524:1,2017-10-01T04:18:00Z,29.8672,-93.9310,0.0,2.7,30.0,3.7,'1111122,1111122,1111122' 
TCOON,ioos:station:TCOON:524:1,2017-10-01T04:24:00Z,29.8672,-93.9310,0.0,2.4,35.0,3.9,'11111222,11111222,11111222' 
TCOON,ioos:station:TCOON:524:1,2017-10-01T04:30:00Z,29.8672,-93.9310,0.0,2.1,40.0,5.1,'11111222,11111222,11111222' 
TCOON,ioos:station:TCOON:524:1,2017-10-01T04:36:00Z,29.8672,-93.9310,0.0,2.5,39.0,4.2,'11111222,11111222,11111222' 
TCOON,ioos:station:TCOON:524:1,2017-10-01T04:42:00Z,29.8672,-93.9310,0.0,2.7,35.0,3.5,'11111222,11111222,11111222' 
TCOON,ioos:station:TCOON:524:1,2017-10-01T04:48:00Z,29.8672,-93.9310,0.0,2.7,31.0,4.3,'11111222,11111222,11111222' 
TCOON,ioos:station:TCOON:524:1,2017-10-01T04:54:00Z,29.8672,-93.9310,0.0,3.1,23.0,4.1,'11111222,11111222,11111222' 
TCOON,ioos:station:TCOON:524:1,2017-10-01T05:00:00Z,29.8672,-93.9310,0.0,3.5,21.0,4.7,'11111222,11111222,11111222' 
TCOON,ioos:station:TCOON:524:1,2017-10-01T05:06:00Z,29.8672,-93.9310,0.0,3.5,19.0,4.5,'11111222,11111222,11111222' 
TCOON,ioos:station:TCOON:524:1,2017-10-01T05:12:00Z,29.8672,-93.9310,0.0,3.1,23.0,4.5,'11111222,11111222,11111222' 
TCOON,ioos:station:TCOON:524:1,2017-10-01T05:18:00Z,29.8672,-93.9310,0.0,3.4,28.0,4.2,'11111222,11111222,11111222' 
TCOON,ioos:station:TCOON:524:1,2017-10-01T05:24:00Z,29.8672,-93.9310,0.0,3.4,28.0,4.2,'1111122,1111122,1111122' 
TCOON,ioos:station:TCOON:524:1,2017-10-01T05:30:00Z,29.8672,-93.9310,0.0,2.8,31.0,4.3,'11111222,11111222,11111222' 
TCOON,ioos:station:TCOON:524:1,2017-10-01T05:36:00Z,29.8672,-93.9310,0.0,2.7,32.0,4.3,'11111222,11111222,11111222' 
TCOON,ioos:station:TCOON:524:1,2017-10-01T05:42:00Z,29.8672,-93.9310,0.0,2.6,34.0,4.5,'11111222,11111222,11111222' 
TCOON,ioos:station:TCOON:524:1,2017-10-01T05:48:00Z,29.8672,-93.9310,0.0,3.1,35.0,4.2,'11111222,11111222,11111222' 
TCOON,ioos:station:TCOON:524:1,2017-10-01T05:54:00Z,29.8672,-93.9310,0.0,3.0,37.0,4.2,'11111222,11111222,11111222' 
TCOON,ioos:station:TCOON:524:1,2017-10-01T06:00:00Z,29.8672,-93.9310,0.0,2.4,38.0,3.8,'11111222,11111222,11111222' 
TCOON,ioos:station:TCOON:524:1,2017-10-01T06:06:00Z,29.8672,-93.9310,0.0,2.1,38.0,3.8,'11111222,11111222,11111222' 
TCOON,ioos:station:TCOON:524:1,2017-10-01T06:12:00Z,29.8672,-93.9310,0.0,2.2,38.0,3.3,'11111222,11111222,11111222' 
TCOON,ioos:station:TCOON:524:1,2017-10-01T06:18:00Z,29.8672,-93.9310,0.0,2.2,38.0,3.3,'1111122,1111122,1111122' 
TCOON,ioos:station:TCOON:524:1,2017-10-01T06:24:00Z,29.8672,-93.9310,0.0,1.9,42.0,3.5,'11111222,11111222,11111222' 
TCOON,ioos:station:TCOON:524:1,2017-10-01T06:30:00Z,29.8672,-93.9310,0.0,2.2,35.0,4.0,'11111222,11111222,11111222' 
TCOON,ioos:station:TCOON:524:1,2017-10-01T06:36:00Z,29.8672,-93.9310,0.0,1.7,46.0,3.0,'11111222,11111222,11111222' 
TCOON,ioos:station:TCOON:524:1,2017-10-01T06:42:00Z,29.8672,-93.9310,0.0,1.6,34.0,3.5,'11111222,11111222,11111222' 
TCOON,ioos:station:TCOON:524:1,2017-10-01T06:48:00Z,29.8672,-93.9310,0.0,1.4,37.0,3.1,'11111222,11111222,11111222' 
TCOON,ioos:station:TCOON:524:1,2017-10-01T06:54:00Z,29.8672,-93.9310,0.0,2.7,38.0,3.9,'11111222,11111222,11111222' 
TCOON,ioos:station:TCOON:524:1,2017-10-01T07:00:00Z,29.8672,-93.9310,0.0,1.7,46.0,2.8,'11111222,11111222,11111222' 
TCOON,ioos:station:TCOON:524:1,2017-10-01T07:06:00Z,29.8672,-93.9310,0.0,1.5,41.0,2.6,'11111222,11111222,11111222' 
TCOON,ioos:station:TCOON:524:1,2017-10-01T07:12:00Z,29.8672,-93.9310,0.0,1.5,49.0,3.0,'11111222,11111222,11111222' 
TCOON,ioos:station:TCOON:524:1,2017-10-01T07:18:00Z,29.8672,-93.9310,0.0,1.5,49.0,3.0,'1111122,1111122,1111122' 
TCOON,ioos:station:TCOON:524:1,2017-10-01T07:24:00Z,29.8672,-93.9310,0.0,1.6,51.0,3.1,'11111222,11111222,11111222' 
TCOON,ioos:station:TCOON:524:1,2017-10-01T07:30:00Z,29.8672,-93.9310,0.0,1.5,42.0,3.0,'11111222,11111222,11111222' 
TCOON,ioos:station:TCOON:524:1,2017-10-01T07:36:00Z,29.8672,-93.9310,0.0,2.1,43.0,3.6,'11111222,11111222,11111222' 
TCOON,ioos:station:TCOON:524:1,2017-10-01T07:42:00Z,29.8672,-93.9310,0.0,2.2,37.0,3.8,'11111222,11111222,11111222' 
TCOON,ioos:station:TCOON:524:1,2017-10-01T07:48:00Z,29.8672,-93.9310,0.0,1.5,48.0,2.7,'11111222,11111222,11111222' 
TCOON,ioos:station:TCOON:524:1,2017-10-01T07:54:00Z,29.8672,-93.9310,0.0,1.6,46.0,2.9,'11111222,11111222,11111222' 
TCOON,ioos:station:TCOON:524:1,2017-10-01T08:00:00Z,29.8672,-93.9310,0.0,1.6,37.0,3.1,'11111222,11111222,11111222' 
TCOON,ioos:station:TCOON:524:1,2017-10-01T08:06:00Z,29.8672,-93.9310,0.0,1.6,36.0,2.6,'11111222,11111222,11111222' 
TCOON,ioos:station:TCOON:524:1,2017-10-01T08:12:00Z,29.8672,-93.9310,0.0,1.7,38.0,3.3,'11111222,11111222,11111222' 
TCOON,ioos:station:TCOON:524:1,2017-10-01T08:18:00Z,29.8672,-93.9310,0.0,1.7,38.0,3.3,'1111122,1111122,1111122' 
TCOON,ioos:station:TCOON:524:1,2017-10-01T08:24:00Z,29.8672,-93.9310,0.0,1.7,39.0,2.8,'11111222,11111222,11111222' 
TCOON,ioos:station:TCOON:524:1,2017-10-01T08:30:00Z,29.8672,-93.9310,0.0,1.6,43.0,3.2,'11111222,11111222,11111222' 
TCOON,ioos:station:TCOON:524:1,2017-10-01T08:36:00Z,29.8672,-93.9310,0.0,1.1,50.0,2.8,'11111222,11111222,11111222' 
TCOON,ioos:station:TCOON:524:1,2017-10-01T08:42:00Z,29.8672,-93.9310,0.0,1.2,46.0,2.5,'11111222,11111222,11111222' 
TCOON,ioos:station:TCOON:524:1,2017-10-01T08:48:00Z,29.8672,-93.9310,0.0,1.5,44.0,2.6,'11111222,11111222,11111222' 
TCOON,ioos:station:TCOON:524:1,2017-10-01T08:54:00Z,29.8672,-93.9310,0.0,1.1,42.0,3.0,'11111222,11111222,11111222' 
TCOON,ioos:station:TCOON:524:1,2017-10-01T09:00:00Z,29.8672,-93.9310,0.0,1.3,43.0,2.7,'11111222,11111222,11111222' 
TCOON,ioos:station:TCOON:524:1,2017-10-01T09:06:00Z,29.8672,-93.9310,0.0,1.8,36.0,3.0,'11111222,11111222,11111222' 
TCOON,ioos:station:TCOON:524:1,2017-10-01T09:12:00Z,29.8672,-93.9310,0.0,1.5,48.0,2.8,'11111222,11111222,11111222' 
TCOON,ioos:station:TCOON:524:1,2017-10-01T09:18:00Z,29.8672,-93.9310,0.0,1.5,48.0,2.8,'1111122,1111122,1111122' 
TCOON,ioos:station:TCOON:524:1,2017-10-01T09:24:00Z,29.8672,-93.9310,0.0,1.8,42.0,3.1,'11111222,11111222,11111222' 
TCOON,ioos:station:TCOON:524:1,2017-10-01T09:30:00Z,29.8672,-93.9310,0.0,1.4,38.0,2.8,'11111222,11111222,11111222' 
TCOON,ioos:station:TCOON:524:1,2017-10-01T09:36:00Z,29.8672,-93.9310,0.0,2.2,36.0,3.5,'11111222,11111222,11111222' 
TCOON,ioos:station:TCOON:524:1,2017-10-01T09:42:00Z,29.8672,-93.9310,0.0,2.7,21.0,4.4,'11111222,11111222,11111222' 
TCOON,ioos:station:TCOON:524:1,2017-10-01T09:48:00Z,29.8672,-93.9310,0.0,3.2,10.0,3.9,'11111222,11111222,11111222' 
TCOON,ioos:station:TCOON:524:1,2017-10-01T09:54:00Z,29.8672,-93.9310,0.0,3.5,13.0,4.6,'11111222,11111222,11111222' 
TCOON,ioos:station:TCOON:524:1,2017-10-01T10:00:00Z,29.8672,-93.9310,0.0,3.0,9.0,3.9,'11111222,11111222,11111222' 
TCOON,ioos:station:TCOON:524:1,2017-10-01T10:06:00Z,29.8672,-93.9310,0.0,3.3,10.0,3.8,'11111222,11111222,11111222' 
TCOON,ioos:station:TCOON:524:1,2017-10-01T10:12:00Z,29.8672,-93.9310,0.0,3.1,8.0,3.9,'11111222,11111222,11111222' 
TCOON,ioos:station:TCOON:524:1,2017-10-01T10:18:00Z,29.8672,-93.9310,0.0,3.1,8.0,3.9,'1111122,1111122,1111122' 
TCOON,ioos:station:TCOON:524:1,2017-10-01T10:24:00Z,29.8672,-93.9310,0.0,2.6,353.0,3.1,'11111222,11111222,11111222' 
TCOON,ioos:station:TCOON:524:1,2017-10-01T10:30:00Z,29.8672,-93.9310,0.0,2.7,12.0,3.5,'11111222,11111222,11111222' 
TCOON,ioos:station:TCOON:524:1,2017-10-01T10:36:00Z,29.8672,-93.9310,0.0,2.5,15.0,3.1,'11111222,11111222,11111222' 
TCOON,ioos:station:TCOON:524:1,2017-10-01T10:42:00Z,29.8672,-93.9310,0.0,2.5,12.0,3.1,'11111222,11111222,11111222' 
TCOON,ioos:station:TCOON:524:1,2017-10-01T10:48:00Z,29.8672,-93.9310,0.0,2.4,9.0,3.6,'11111222,11111222,11111222' 
TCOON,ioos:station:TCOON:524:1,2017-10-01T10:54:00Z,29.8672,-93.9310,0.0,2.7,14.0,3.3,'11111222,11111222,11111222' 
TCOON,ioos:station:TCOON:524:1,2017-10-01T11:00:00Z,29.8672,-93.9310,0.0,2.7,12.0,3.1,'11111222,11111222,11111222' 
TCOON,ioos:station:TCOON:524:1,2017-10-01T11:06:00Z,29.8672,-93.9310,0.0,2.5,18.0,3.5,'11111222,11111222,11111222' 
TCOON,ioos:station:TCOON:524:1,2017-10-01T11:12:00Z,29.8672,-93.9310,0.0,2.9,14.0,3.7,'11111222,11111222,11111222' 
TCOON,ioos:station:TCOON:524:1,2017-10-01T11:18:00Z,29.8672,-93.9310,0.0,2.9,14.0,3.7,'1111122,1111122,1111122' 
TCOON,ioos:station:TCOON:524:1,2017-10-01T11:24:00Z,29.8672,-93.9310,0.0,2.0,36.0,3.5,'11111222,11111222,11111222' 
TCOON,ioos:station:TCOON:524:1,2017-10-01T11:30:00Z,29.8672,-93.9310,0.0,3.0,22.0,4.1,'11111222,11111222,11111222' 
TCOON,ioos:station:TCOON:524:1,2017-10-01T11:36:00Z,29.8672,-93.9310,0.0,3.1,28.0,4.2,'11111222,11111222,11111222' 
TCOON,ioos:station:TCOON:524:1,2017-10-01T11:42:00Z,29.8672,-93.9310,0.0,1.6,35.0,3.7,'11111222,11111222,11111222' 
TCOON,ioos:station:TCOON:524:1,2017-10-01T11:48:00Z,29.8672,-93.9310,0.0,1.9,38.0,3.3,'11111222,11111222,11111222' 
TCOON,ioos:station:TCOON:524:1,2017-10-01T11:54:00Z,29.8672,-93.9310,0.0,1.8,41.0,3.0,'11111222,11111222,11111222' 
TCOON,ioos:station:TCOON:524:1,2017-10-01T12:00:00Z,29.8672,-93.9310,0.0,1.4,46.0,3.7,'11111222,11111222,11111222' 
TCOON,ioos:station:TCOON:524:1,2017-10-01T12:06:00Z,29.8672,-93.9310,0.0,2.1,42.0,3.0,'11111222,11111222,11111222' 
TCOON,ioos:station:TCOON:524:1,2017-10-01T12:12:00Z,29.8672,-93.9310,0.0,1.7,40.0,2.8,'11111222,11111222,11111222' 
TCOON,ioos:station:TCOON:524:1,2017-10-01T12:18:00Z,29.8672,-93.9310,0.0,1.7,40.0,2.8,'1111122,1111122,1111122' 
TCOON,ioos:station:TCOON:524:1,2017-10-01T12:24:00Z,29.8672,-93.9310,0.0,1.2,39.0,2.5,'11111222,11111222,11111222' 
TCOON,ioos:station:TCOON:524:1,2017-10-01T12:30:00Z,29.8672,-93.9310,0.0,1.5,37.0,2.7,'11111222,11111222,11111222' 
TCOON,ioos:station:TCOON:524:1,2017-10-01T12:36:00Z,29.8672,-93.9310,0.0,1.5,39.0,2.4,'11111222,11111222,11111222' 
TCOON,ioos:station:TCOON:524:1,2017-10-01T12:42:00Z,29.8672,-93.9310,0.0,1.6,41.0,2.8,'11111222,11111222,11111222' 
TCOON,ioos:station:TCOON:524:1,2017-10-01T12:48:00Z,29.8672,-93.9310,0.0,1.9,38.0,3.1,'11111222,11111222,11111222' 
TCOON,ioos:station:TCOON:524:1,2017-10-01T12:54:00Z,29.8672,-93.9310,0.0,2.3,35.0,3.7,'11111222,11111222,11111222' 
TCOON,ioos:station:TCOON:524:1,2017-10-01T13:00:00Z,29.8672,-93.9310,0.0,2.2,29.0,3.3,'11111222,11111222,11111222' 
TCOON,ioos:station:TCOON:524:1,2017-10-01T13:06:00Z,29.8672,-93.9310,0.0,2.0,36.0,3.3,'11111222,11111222,11111222' 
TCOON,ioos:station:TCOON:524:1,2017-10-01T13:12:00Z,29.8672,-93.9310,0.0,1.6,40.0,3.2,'11111222,11111222,11111222' 
TCOON,ioos:station:TCOON:524:1,2017-10-01T13:18:00Z,29.8672,-93.9310,0.0,1.6,40.0,3.2,'1111122,1111122,1111122' 
TCOON,ioos:station:TCOON:524:1,2017-10-01T13:24:00Z,29.8672,-93.9310,0.0,1.5,45.0,2.5,'11111222,11111222,11111222' 
TCOON,ioos:station:TCOON:524:1,2017-10-01T13:30:00Z,29.8672,-93.9310,0.0,1.7,40.0,3.0,'11111222,11111222,11111222' 
TCOON,ioos:station:TCOON:524:1,2017-10-01T13:36:00Z,29.8672,-93.9310,0.0,1.9,51.0,3.1,'11111222,11111222,11111222' 
TCOON,ioos:station:TCOON:524:1,2017-10-01T13:42:00Z,29.8672,-93.9310,0.0,1.5,60.0,2.5,'11111222,11111222,11111222' 
TCOON,ioos:station:TCOON:524:1,2017-10-01T13:48:00Z,29.8672,-93.9310,0.0,1.8,63.0,3.6,'11111222,11111222,11111222' 
TCOON,ioos:station:TCOON:524:1,2017-10-01T13:54:00Z,29.8672,-93.9310,0.0,1.7,58.0,4.3,'11111222,11111222,11111222' 
TCOON,ioos:station:TCOON:524:1,2017-10-01T14:00:00Z,29.8672,-93.9310,0.0,1.9,53.0,2.8,'11111222,11111222,11111222' 
TCOON,ioos:station:TCOON:524:1,2017-10-01T14:06:00Z,29.8672,-93.9310,0.0,2.6,60.0,4.2,'11111222,11111222,11111222' 
TCOON,ioos:station:TCOON:524:1,2017-10-01T14:12:00Z,29.8672,-93.9310,0.0,2.1,67.0,3.8,'11111222,11111222,11111222' 
TCOON,ioos:station:TCOON:524:1,2017-10-01T14:18:00Z,29.8672,-93.9310,0.0,2.1,67.0,3.8,'1111122,1111122,1111122' 
TCOON,ioos:station:TCOON:524:1,2017-10-01T14:24:00Z,29.8672,-93.9310,0.0,2.8,81.0,4.3,'11111222,11111222,11111222' 
TCOON,ioos:station:TCOON:524:1,2017-10-01T14:30:00Z,29.8672,-93.9310,0.0,3.6,76.0,4.8,'11111222,11111222,11111222' 
TCOON,ioos:station:TCOON:524:1,2017-10-01T14:36:00Z,29.8672,-93.9310,0.0,2.7,84.0,4.5,'11111222,11111222,11111222' 
TCOON,ioos:station:TCOON:524:1,2017-10-01T14:42:00Z,29.8672,-93.9310,0.0,2.3,86.0,4.2,'11111222,11111222,11111222' 
TCOON,ioos:station:TCOON:524:1,2017-10-01T14:48:00Z,29.8672,-93.9310,0.0,2.7,83.0,4.3,'11111222,11111222,11111222' 
TCOON,ioos:station:TCOON:524:1,2017-10-01T14:54:00Z,29.8672,-93.9310,0.0,3.2,75.0,4.4,'11111222,11111222,11111222' 
TCOON,ioos:station:TCOON:524:1,2017-10-01T15:00:00Z,29.8672,-93.9310,0.0,2.9,98.0,4.2,'11111222,11111222,11111222' 
TCOON,ioos:station:TCOON:524:1,2017-10-01T15:06:00Z,29.8672,-93.9310,0.0,2.8,86.0,3.9,'11111222,11111222,11111222' 
TCOON,ioos:station:TCOON:524:1,2017-10-01T15:12:00Z,29.8672,-93.9310,0.0,2.5,67.0,3.6,'11111222,11111222,11111222' 
TCOON,ioos:station:TCOON:524:1,2017-10-01T15:18:00Z,29.8672,-93.9310,0.0,2.5,67.0,3.6,'1111122,1111122,1111122' 
TCOON,ioos:station:TCOON:524:1,2017-10-01T15:24:00Z,29.8672,-93.9310,0.0,2.5,72.0,4.0,'11111222,11111222,11111222' 
TCOON,ioos:station:TCOON:524:1,2017-10-01T15:30:00Z,29.8672,-93.9310,0.0,2.3,81.0,4.2,'11111222,11111222,11111222' 
TCOON,ioos:station:TCOON:524:1,2017-10-01T15:36:00Z,29.8672,-93.9310,0.0,2.7,74.0,4.4,'11111222,11111222,11111222' 
TCOON,ioos:station:TCOON:524:1,2017-10-01T15:42:00Z,29.8672,-93.9310,0.0,2.8,90.0,3.9,'11111222,11111222,11111222' 
TCOON,ioos:station:TCOON:524:1,2017-10-01T15:48:00Z,29.8672,-93.9310,0.0,1.9,91.0,3.8,'11111222,11111222,11111222' 
TCOON,ioos:station:TCOON:524:1,2017-10-01T15:54:00Z,29.8672,-93.9310,0.0,2.6,88.0,4.1,'11111222,11111222,11111222' 
TCOON,ioos:station:TCOON:524:1,2017-10-01T16:00:00Z,29.8672,-93.9310,0.0,2.4,76.0,3.6,'11111222,11111222,11111222' 
TCOON,ioos:station:TCOON:524:1,2017-10-01T16:06:00Z,29.8672,-93.9310,0.0,2.5,90.0,3.8,'11111222,11111222,11111222' 
TCOON,ioos:station:TCOON:524:1,2017-10-01T16:12:00Z,29.8672,-93.9310,0.0,2.6,79.0,3.8,'11111222,11111222,11111222' 
TCOON,ioos:station:TCOON:524:1,2017-10-01T16:18:00Z,29.8672,-93.9310,0.0,2.6,79.0,3.8,'1111122,1111122,1111122' 
TCOON,ioos:station:TCOON:524:1,2017-10-01T16:24:00Z,29.8672,-93.9310,0.0,2.5,79.0,3.6,'11111222,11111222,11111222' 
TCOON,ioos:station:TCOON:524:1,2017-10-01T16:30:00Z,29.8672,-93.9310,0.0,1.6,73.0,3.5,'11111222,11111222,11111222' 
TCOON,ioos:station:TCOON:524:1,2017-10-01T16:36:00Z,29.8672,-93.9310,0.0,2.6,86.0,3.4,'11111222,11111222,11111222' 
TCOON,ioos:station:TCOON:524:1,2017-10-01T16:42:00Z,29.8672,-93.9310,0.0,2.2,72.0,3.4,'11111222,11111222,11111222' 
TCOON,ioos:station:TCOON:524:1,2017-10-01T16:48:00Z,29.8672,-93.9310,0.0,2.2,77.0,3.3,'11111222,11111222,11111222' 
TCOON,ioos:station:TCOON:524:1,2017-10-01T16:54:00Z,29.8672,-93.9310,0.0,2.0,70.0,3.3,'11111222,11111222,11111222' 
TCOON,ioos:station:TCOON:524:1,2017-10-01T17:00:00Z,29.8672,-93.9310,0.0,1.5,77.0,2.9,'11111222,11111222,11111222' 
TCOON,ioos:station:TCOON:524:1,2017-10-01T17:06:00Z,29.8672,-93.9310,0.0,1.8,83.0,3.1,'11111222,11111222,11111222' 
TCOON,ioos:station:TCOON:524:1,2017-10-01T17:12:00Z,29.8672,-93.9310,0.0,1.7,89.0,2.9,'11111222,11111222,11111222' 
TCOON,ioos:station:TCOON:524:1,2017-10-01T17:18:00Z,29.8672,-93.9310,0.0,1.7,89.0,2.9,'1111122,1111122,1111122' 
TCOON,ioos:station:TCOON:524:1,2017-10-01T17:24:00Z,29.8672,-93.9310,0.0,1.5,82.0,2.5,'11111222,11111222,11111222' 
TCOON,ioos:station:TCOON:524:1,2017-10-01T17:30:00Z,29.8672,-93.9310,0.0,2.1,96.0,3.1,'11111222,11111222,11111222' 
TCOON,ioos:station:TCOON:524:1,2017-10-01T17:36:00Z,29.8672,-93.9310,0.0,1.9,82.0,2.5,'11111222,11111222,11111222' 
TCOON,ioos:station:TCOON:524:1,2017-10-01T17:42:00Z,29.8672,-93.9310,0.0,1.9,81.0,2.5,'11111222,11111222,11111222' 
TCOON,ioos:station:TCOON:524:1,2017-10-01T17:48:00Z,29.8672,-93.9310,0.0,1.7,92.0,3.0,'11111222,11111222,11111222' 
TCOON,ioos:station:TCOON:524:1,2017-10-01T17:54:00Z,29.8672,-93.9310,0.0,2.2,100.0,3.3,'11111222,11111222,11111222' 
TCOON,ioos:station:TCOON:524:1,2017-10-01T18:00:00Z,29.8672,-93.9310,0.0,2.0,72.0,2.8,'11111222,11111222,11111222' 
TCOON,ioos:station:TCOON:524:1,2017-10-01T18:06:00Z,29.8672,-93.9310,0.0,2.3,85.0,3.4,'11111222,11111222,11111222' 
TCOON,ioos:station:TCOON:524:1,2017-10-01T18:12:00Z,29.8672,-93.9310,0.0,2.3,76.0,3.3,'11111222,11111222,11111222' 
TCOON,ioos:station:TCOON:524:1,2017-10-01T18:18:00Z,29.8672,-93.9310,0.0,2.3,76.0,3.3,'1111122,1111122,1111122' 
TCOON,ioos:station:TCOON:524:1,2017-10-01T18:24:00Z,29.8672,-93.9310,0.0,2.2,93.0,3.0,'11111222,11111222,11111222' 
TCOON,ioos:station:TCOON:524:1,2017-10-01T18:30:00Z,29.8672,-93.9310,0.0,2.2,100.0,3.5,'11111222,11111222,11111222' 
TCOON,ioos:station:TCOON:524:1,2017-10-01T18:36:00Z,29.8672,-93.9310,0.0,2.2,104.0,3.6,'11111222,11111222,11111222' 
TCOON,ioos:station:TCOON:524:1,2017-10-01T18:42:00Z,29.8672,-93.9310,0.0,2.3,102.0,3.4,'11111222,11111222,11111222' 
TCOON,ioos:station:TCOON:524:1,2017-10-01T18:48:00Z,29.8672,-93.9310,0.0,2.0,89.0,3.7,'11111222,11111222,11111222' 
TCOON,ioos:station:TCOON:524:1,2017-10-01T18:54:00Z,29.8672,-93.9310,0.0,1.9,95.0,3.3,'11111222,11111222,11111222' 
TCOON,ioos:station:TCOON:524:1,2017-10-01T19:00:00Z,29.8672,-93.9310,0.0,2.5,101.0,3.2,'11111222,11111222,11111222' 
TCOON,ioos:station:TCOON:524:1,2017-10-01T19:06:00Z,29.8672,-93.9310,0.0,1.9,85.0,3.2,'11111222,11111222,11111222' 
TCOON,ioos:station:TCOON:524:1,2017-10-01T19:12:00Z,29.8672,-93.9310,0.0,2.4,95.0,3.4,'11111222,11111222,11111222' 
TCOON,ioos:station:TCOON:524:1,2017-10-01T19:18:00Z,29.8672,-93.9310,0.0,2.4,95.0,3.4,'1111122,1111122,1111122' 
TCOON,ioos:station:TCOON:524:1,2017-10-01T19:24:00Z,29.8672,-93.9310,0.0,3.0,97.0,3.6,'11111222,11111222,11111222' 
TCOON,ioos:station:TCOON:524:1,2017-10-01T19:30:00Z,29.8672,-93.9310,0.0,2.6,92.0,3.7,'11111222,11111222,11111222' 
TCOON,ioos:station:TCOON:524:1,2017-10-01T19:36:00Z,29.8672,-93.9310,0.0,2.8,112.0,3.6,'11111222,11111222,11111222' 
TCOON,ioos:station:TCOON:524:1,2017-10-01T19:42:00Z,29.8672,-93.9310,0.0,3.3,107.0,4.7,'11111222,11111222,11111222' 
TCOON,ioos:station:TCOON:524:1,2017-10-01T19:48:00Z,29.8672,-93.9310,0.0,2.7,126.0,4.4,'11111222,11111222,11111222' 
TCOON,ioos:station:TCOON:524:1,2017-10-01T19:54:00Z,29.8672,-93.9310,0.0,2.8,133.0,4.8,'11111222,11111222,11111222' 
TCOON,ioos:station:TCOON:524:1,2017-10-01T20:00:00Z,29.8672,-93.9310,0.0,3.4,136.0,5.3,'11111222,11111222,11111222' 
TCOON,ioos:station:TCOON:524:1,2017-10-01T20:06:00Z,29.8672,-93.9310,0.0,2.6,116.0,4.4,'11111222,11111222,11111222' 
TCOON,ioos:station:TCOON:524:1,2017-10-01T20:12:00Z,29.8672,-93.9310,0.0,2.8,116.0,3.6,'11111222,11111222,11111222' 
TCOON,ioos:station:TCOON:524:1,2017-10-01T20:18:00Z,29.8672,-93.9310,0.0,2.8,116.0,3.6,'1111122,1111122,1111122' 
TCOON,ioos:station:TCOON:524:1,2017-10-01T20:24:00Z,29.8672,-93.9310,0.0,2.7,108.0,4.0,'11111222,11111222,11111222' 
TCOON,ioos:station:TCOON:524:1,2017-10-01T20:30:00Z,29.8672,-93.9310,0.0,2.7,112.0,3.6,'11111222,11111222,11111222' 